Bookmark and Share
Track history (hours):
 

Ekin-s

Last reported at 2014-Apr-18 22:18 UTC. Time now 2014-Apr-19 00:03 UTC.
Position N 55°01' E 006°48'.

Length 109 m; draft 6.6 m.

Type: Ship. MMSI: 271042836.

NotesDate/timePositionNaut miles runAvg speedWind from/ knotsBaromVisibWave heightAir tempDewpointWater temp
2014-Apr-18 22:18N 55°01' E 006°48'710.0
2014-Apr-18 21:33N 54°55' E 006°53'10 9.8
2014-Apr-18 20:33N 54°46' E 007°00'10 9.8
2014-Apr-18 19:34N 54°37' E 007°07'1010.4
2014-Apr-18 18:34N 54°27' E 007°14'1110.7
2014-Apr-18 17:33N 54°18' E 007°23'1111.5
2014-Apr-18 16:34N 54°10' E 007°38'1211.5
2014-Apr-18 15:33N 54°04' E 007°55'1111.3
2014-Apr-18 14:34N 54°00' E 008°13'1111.0
2014-Apr-18 13:33N 53°58' E 008°31'9 9.3
2014-Apr-18 12:33N 53°52' E 008°44'9 8.7
2014-Apr-18 11:33N 53°51' E 008°58'1110.8
2014-Apr-18 10:34N 53°52' E 009°16'1413.5
2014-Apr-18 09:33N 53°41' E 009°30'1313.1
2014-Apr-18 08:33N 53°33' E 009°48'6 5.7
2014-Apr-18 07:33N 53°31' E 009°56'0 0.0
2014-Apr-18 06:32N 53°31' E 009°56'0 0.0
2014-Apr-18 05:32N 53°31' E 009°56'0 0.0
2014-Apr-18 04:32N 53°31' E 009°56'0 0.0
2014-Apr-18 03:32N 53°31' E 009°56'0 0.0
2014-Apr-18 02:32N 53°31' E 009°56'0 0.0
2014-Apr-18 01:32N 53°31' E 009°56'0 0.0
2014-Apr-18 00:32N 53°31' E 009°56'0 0.0
2014-Apr-17 23:32N 53°31' E 009°56'0 0.0
2014-Apr-17 22:32N 53°31' E 009°56'0 0.0
2014-Apr-17 21:32N 53°31' E 009°56'0 0.0
2014-Apr-17 20:32N 53°31' E 009°56'0 0.0
2014-Apr-17 19:32N 53°31' E 009°56'0 0.0
2014-Apr-17 18:29N 53°31' E 009°56'0 0.0
2014-Apr-17 17:32N 53°31' E 009°56'0 0.0
2014-Apr-17 16:32N 53°31' E 009°56'0 0.0
2014-Apr-17 15:32N 53°31' E 009°56'0 0.0
2014-Apr-17 14:32N 53°31' E 009°56'0 0.0
2014-Apr-17 13:26N 53°31' E 009°56'0 0.0
2014-Apr-17 12:32N 53°31' E 009°56'0 0.0
2014-Apr-17 11:32N 53°31' E 009°56'0 0.0
2014-Apr-17 10:32N 53°31' E 009°56'0 0.0
2014-Apr-17 09:32N 53°31' E 009°56'0 0.0
2014-Apr-17 08:32N 53°31' E 009°56'5 5.5
2014-Apr-17 07:33N 53°33' E 009°48'9 9.4
2014-Apr-17 06:33N 53°37' E 009°33'0 0.1
2014-Apr-17 05:33N 53°37' E 009°33'0 0.1
2014-Apr-17 04:24N 53°37' E 009°33'0 0.1
2014-Apr-17 03:33N 53°37' E 009°33'4 4.2
2014-Apr-17 02:34N 53°40' E 009°30'1414.5
2014-Apr-17 01:33N 53°52' E 009°16'1313.3
2014-Apr-17 00:34N 53°50' E 008°54'1413.6
2014-Apr-16 23:33N 53°58' E 008°34'1414.3
2014-Apr-16 22:33N 53°59' E 008°10'4 4.0
2014-Apr-16 21:31N 54°03' E 008°08'0 0.1
2014-Apr-16 20:31N 54°03' E 008°08'0 0.1
2014-Apr-16 19:31N 54°03' E 008°08'0 0.0
2014-Apr-16 18:28N 54°03' E 008°08'0 0.0
2014-Apr-16 17:25N 54°03' E 008°08'0 0.0
2014-Apr-16 16:31N 54°03' E 008°08'0 0.0
2014-Apr-16 15:31N 54°03' E 008°08'0 0.0
2014-Apr-16 14:28N 54°03' E 008°08'0 0.1
2014-Apr-16 13:28N 54°03' E 008°08'0 0.1
2014-Apr-16 12:31N 54°03' E 008°08'0 0.0
2014-Apr-16 11:28N 54°03' E 008°08'0 0.0
2014-Apr-16 10:22N 54°03' E 008°08'0 0.0
2014-Apr-16 09:33N 54°03' E 008°08'0 0.4
2014-Apr-16 08:33N 54°03' E 008°07'1313.4
2014-Apr-16 07:33N 54°06' E 007°45'1313.4
2014-Apr-16 06:33N 54°15' E 007°28'1211.9
2014-Apr-16 05:32N 54°25' E 007°17'1111.0
2014-Apr-16 04:33N 54°35' E 007°09'1010.0
2014-Apr-16 03:34N 54°44' E 007°01'1010.2
2014-Apr-16 02:33N 54°53' E 006°54'1010.4
2014-Apr-16 01:33N 55°03' E 006°47'1110.8
2014-Apr-16 00:33N 55°13' E 006°40'1111.1
2014-Apr-15 23:33N 55°23' E 006°33'  
2014-Apr-11 14:33N 58°34' E 005°04'1211.7
2014-Apr-11 13:32N 58°25' E 005°20'1211.8
2014-Apr-11 12:31N 58°17' E 005°35'1111.7
2014-Apr-11 11:33N 58°09' E 005°51'1211.8
2014-Apr-11 10:33N 58°01' E 006°07'13411.7
2014-Apr-10 23:07N 57°49' E 010°19'611.5
2014-Apr-10 22:33N 57°49' E 010°31'1110.9
2014-Apr-10 21:33N 57°46' E 010°50'1312.7
2014-Apr-10 20:33N 57°37' E 011°08'1312.9
2014-Apr-10 19:33N 57°28' E 011°25'1211.9
2014-Apr-10 18:33N 57°17' E 011°33'1312.5
2014-Apr-10 17:29N 57°05' E 011°41'1112.3
2014-Apr-10 16:33N 56°54' E 011°48'1212.3
2014-Apr-10 15:33N 56°42' E 011°55'1212.3
2014-Apr-10 14:33N 56°30' E 012°00'1212.3
2014-Apr-10 13:33N 56°18' E 012°05'1212.4
2014-Apr-10 12:33N 56°11' E 012°23'1312.7
2014-Apr-10 11:33N 56°02' E 012°40'1212.4
2014-Apr-10 10:33N 55°50' E 012°44'1212.0
2014-Apr-10 09:33N 55°38' E 012°42'1111.5
2014-Apr-10 08:33N 55°27' E 012°42'1010.0
2014-Apr-10 07:33N 55°17' E 012°47'1212.0
2014-Apr-10 06:33N 55°15' E 013°07'1212.3
2014-Apr-10 05:33N 55°14' E 013°29'1312.5
2014-Apr-10 04:33N 55°14' E 013°51'1312.7
2014-Apr-10 03:32N 55°13' E 014°13'1212.1
2014-Apr-10 02:33N 55°22' E 014°28'1212.3
2014-Apr-10 01:33N 55°29' E 014°45'1212.1
2014-Apr-10 00:33N 55°34' E 015°05'1212.2
2014-Apr-09 23:33N 55°33' E 015°26'  

Dump ship's entire track history

sailing weather and tide predictions

Ekin-s — TCMW3 — position and weather